Powrót do katalogu

EUTE 8 WEST B

AktywnyŁącznośćGEO
NORAD 40875·PAYLOAD·🇪🇺 EU

Wystrzelony Aug 20, 2015 z Guiana Space Centre

Loading…

TLE

ŚwieżeSource: Space-Track

Epoka: Sep 14, 2026, 08:38 UTC

1 40875U 15039B   26257.35974507 -.00000074  00000-0  00000-0 0  9996
2 40875   0.0668 350.9657 0003654 181.4722 302.4461  1.00270907 40554

Śledź EUTE 8 WEST B w czasie rzeczywistym z AllMySat

Download on the App Store